Wainwright, AK

12:14 PM AKDT on July 27, 2017 (GMT -0800)
Wainwright

Weather History for PAWI - August, 2013

Change the Weather History Date:

Tuesday, August 6, 2013

  Actual Average (PABR) Record (PABR)
Temperature  
Mean Temperature 42 °F -  
Max Temperature 48 °F 42 °F 70 °F (1930)
Min Temperature 37 °F 33 °F 26 °F (1969)
Degree Days  
Heating Degree Days 22    
Moisture  
Dew Point 39 °F    
Average Humidity 89    
Maximum Humidity 93    
Minimum Humidity 81    
Precipitation  
Precipitation 0.03 in - - ()
Sea Level Pressure  
Sea Level Pressure 30.05 in    
Wind  
Wind Speed 16 mph (ENE)    
Max Wind Speed 22 mph    
Max Gust Speed 30 mph    
Visibility 7 miles    
Events Fog , Rain    
Averages and records for this station are not official NWS values.
T = Trace of Precipitation, MM = Missing Value Source: NWS Daily Summary

Daily Weather History Graph

Daily Weather History Graph

Search for Another Location

Airport or City:

Trip Planner

Search our weather history database for the weather conditions in past years. The results will help you decide how hot, cold, wet, or windy it might be!

Date:

Astronomy

Aug. 06, 2013 Rise Set
Actual Time 4:33 AM AKDT 12:51 AM AKDT
Civil Twilight Sun does not set Sun does not set
Nautical Twilight Sun does not set Sun does not set
Astronomical Twilight Sun does not set Sun does not set
Moon 5:44 AM AKDT (8/6) 10:59 PM AKDT (8/6)
Length of Visible Light 24h 00m
Length of Day
20h 18m
Waning Crescent, 0% of the Moon is Illuminated
Aug 6
Waning Crescent
Aug 6
New
Aug 14
First Quarter
Aug 20
Full
Aug 28
Last Quarter

Hourly Weather History & Observations

Time (AKDT) Temp. Windchill Dew Point Humidity Pressure Visibility Wind Dir Wind Speed Gust Speed Precip Events Conditions
12:53 AM 37.0 °F 27.4 °F 33.1 °F 86% 30.09 in 10.0 mi NNE 17.3 mph - N/A   Overcast
1:53 AM 37.0 °F 27.7 °F 33.1 °F 86% 30.09 in 10.0 mi NNE 16.1 mph - N/A   Overcast
2:53 AM 37.0 °F 27.0 °F 33.1 °F 86% 30.10 in 10.0 mi NNE 18.4 mph - N/A   Overcast
3:53 AM 37.9 °F 29.2 °F 34.0 °F 86% 30.11 in 10.0 mi NNE 15.0 mph - N/A   Overcast
4:53 AM 37.9 °F 30.9 °F 35.1 °F 89% 30.11 in 10.0 mi NE 10.4 mph - N/A   Overcast
5:53 AM 37.9 °F 30.9 °F 34.0 °F 86% 30.11 in 10.0 mi ENE 10.4 mph - N/A   Overcast
6:53 AM 37.9 °F 30.9 °F 35.1 °F 89% 30.11 in 9.0 mi NE 10.4 mph - 0.00 in Rain Light Rain
7:53 AM 37.9 °F 28.9 °F 35.1 °F 89% 30.11 in 7.0 mi ENE 16.1 mph - 0.01 in Rain Light Rain
8:08 AM 37.4 °F 28.5 °F 35.6 °F 93% 30.10 in 7.0 mi ENE 15.0 mph 20.7 mph 0.01 in Rain Light Rain
8:28 AM 37.4 °F 28.5 °F 35.6 °F 93% 30.11 in 6.0 mi ENE 15.0 mph - 0.01 in Rain Light Rain
8:51 AM 37.4 °F 28.5 °F 35.6 °F 93% 30.11 in 7.0 mi ENE 15.0 mph - 0.02 in Rain Light Rain
8:53 AM 37.9 °F 29.6 °F 36.0 °F 93% 30.12 in 7.0 mi ENE 13.8 mph - 0.02 in Rain Light Rain
9:15 AM 39.2 °F 30.2 °F 35.6 °F 87% 30.11 in 5.0 mi ENE 17.3 mph - 0.00 in Rain Light Rain
9:53 AM 39.0 °F 29.0 °F 35.1 °F 86% 30.11 in 8.0 mi ENE 20.7 mph 25.3 mph 0.00 in Rain Light Rain
10:53 AM 39.0 °F 28.8 °F 36.0 °F 89% 30.09 in 3.0 mi ENE 21.9 mph 29.9 mph N/A Rain Light Rain
11:28 AM 39.2 °F 30.2 °F 35.6 °F 87% 30.08 in 3.0 mi NE 17.3 mph 28.8 mph 0.00 in Rain Light Rain
11:53 AM 39.9 °F 30.5 °F 37.0 °F 89% 30.07 in 10.0 mi NE 19.6 mph 28.8 mph 0.00 in   Overcast
12:11 PM 39.2 °F 29.3 °F 37.4 °F 93% 30.07 in 10.0 mi NE 20.7 mph 28.8 mph N/A   Overcast
12:53 PM 41.0 °F 32.2 °F 37.0 °F 86% 30.07 in 10.0 mi NE 18.4 mph - 0.00 in Rain Light Rain
1:16 PM 41.0 °F 32.2 °F 37.4 °F 87% 30.06 in 7.0 mi ENE 18.4 mph 23.0 mph 0.00 in Rain Light Rain
1:40 PM 41.0 °F 31.9 °F 37.4 °F 87% 30.06 in 6.0 mi ENE 19.6 mph 26.5 mph 0.00 in Rain Light Rain
1:53 PM 41.0 °F 31.6 °F 37.9 °F 89% 30.06 in 10.0 mi ENE 20.7 mph 28.8 mph 0.00 in   Overcast
2:11 PM 42.8 °F 34.0 °F 37.4 °F 81% 30.05 in 10.0 mi ENE 20.7 mph 26.5 mph N/A   Overcast
2:53 PM 43.0 °F 34.8 °F 39.9 °F 89% 30.04 in 10.0 mi ENE 18.4 mph 27.6 mph N/A   Overcast
3:53 PM 45.0 °F 37.4 °F 41.0 °F 86% 30.03 in 10.0 mi ENE 18.4 mph - N/A   Overcast
4:04 PM 46.4 °F 39.8 °F 41.0 °F 81% 30.02 in 10.0 mi East 16.1 mph - N/A   Overcast
4:53 PM 45.0 °F 38.5 °F 41.0 °F 86% 30.01 in 10.0 mi East 13.8 mph 25.3 mph N/A   Overcast
5:53 PM 46.0 °F 39.0 °F 42.1 °F 86% 30.00 in 6.0 mi East 17.3 mph - N/A   Overcast
6:53 PM 46.0 °F 39.0 °F 43.0 °F 89% 29.99 in 4.0 mi ENE 17.3 mph - N/A   Overcast
7:53 PM 46.9 °F - 44.1 °F 90% 29.98 in 3.0 mi East 13.8 mph - N/A   Overcast
8:53 PM 46.9 °F - 44.1 °F 90% 29.97 in 3.0 mi East 13.8 mph - N/A   Overcast
9:53 PM 46.9 °F - 45.0 °F 93% 29.96 in 2.5 mi East 11.5 mph - N/A   Overcast
10:12 PM 48.2 °F - 44.6 °F 87% 29.96 in 1.8 mi East 12.7 mph - N/A   Overcast
10:36 PM 48.2 °F - 46.4 °F 93% 29.95 in 2.5 mi East 12.7 mph - N/A   Overcast
10:48 PM 48.2 °F - 46.4 °F 93% 29.95 in 1.2 mi East 10.4 mph - N/A   Overcast
10:53 PM 48.0 °F - 46.0 °F 93% 29.96 in 1.0 mi East 10.4 mph - N/A   Overcast
11:02 PM 48.2 °F - 46.4 °F 93% 29.95 in 0.8 mi East 11.5 mph - N/A   Overcast
11:53 PM 48.0 °F - 46.0 °F 93% 29.95 in 0.5 mi East 10.4 mph - N/A Fog Fog